Regional Weather Roundup
Issued by NWS Upton, NY

Current Version | Previous Version | Text Only | Print | Product List | Glossary On
Versions: 1 2 3 4 5 6 7 8 9 10 11 12 13 14 15 16 17 18 19 20 21 22 23 24 25 26 27 28 29 30 31 32 33 34 35 36 37 38 39 40 41 42 43 44 45 46 47 48 49 50
000
ASUS41 KOKX 301218
RWROKX

REGIONAL WEATHER ROUNDUP
NATIONAL WEATHER SERVICE NEW YORK NY
800 AM EDT TUE JUN 30 2015

NOTE: "FAIR" INDICATES FEW OR NO CLOUDS BELOW 12,000 FEET WITH NO
SIGNIFICANT WEATHER AND/OR OBSTRUCTIONS TO VISIBILITY.

NYZ071-072-176-178-NJZ106-104-301300-
NEW YORK CITY METRO AREA


CITY           SKY/WX    TMP DP  RH WIND       PRES   REMARKS
CENTRAL PARK   PTSUNNY   73  59  61 VRB5      30.02R
LAGUARDIA APRT PTSUNNY   73  59  61 S8        29.98R
KENNEDY INTL   MOSUNNY   72  62  71 S5        29.99R
NEWARK/LIBERTY PTSUNNY   71  61  70 SE3       29.98R
BRNX BOT. GARD   N/A    N/A N/A N/A E1        30.01R
TETERBORO      CLOUDY    71  60  68 CALM      29.98R
$$

NYZ177-179-078>081-301300-
LONG ISLAND NEW YORK

CITY           SKY/WX    TMP DP  RH WIND       PRES   REMARKS
FARMINGDALE    SUNNY     72  65  78 S6        29.99S
ISLIP          MOSUNNY   71  66  84 S6        29.98S
SHIRLEY        SUNNY     71  66  84 S7        30.00S
WESTHAMPTON    SUNNY     72  67  84 SW7       30.01S
MONTAUK POINT    N/A     71  65  81 SW6       30.02R
$$

NYZ052-065-067-301300-
HUDSON VALLEY

CITY           SKY/WX    TMP DP  RH WIND       PRES   REMARKS
WHITE PLAINS   MOSUNNY   69  61  75 S3        29.99R
NEWBURGH       PTSUNNY   64  63  94 VRB5      30.00R
MONTGOMERY     CLOUDY    64  60  87 CALM      29.99R
POUGHKEEPSIE   PTSUNNY   66  61  84 N3        29.98R
ALBANY         PTSUNNY   65  59  81 CALM      30.00R
$$

NJZ001-105-106-008-010-013-015-019>022-104-301300-
NEW JERSEY

CITY           SKY/WX    TMP DP  RH WIND       PRES   REMARKS
NEWARK/LIBERTY PTSUNNY   71  61  70 SE3       29.98R
TETERBORO      CLOUDY    71  60  68 CALM      29.98R
CALDWELL       CLOUDY    65  59  81 CALM      29.99R
MORRISTOWN     CLOUDY    68  66  94 CALM      29.99R
SOMERVILLE     CLOUDY    65  61  87 MISG      29.96S
SUSSEX         CLOUDY    63  60  90 CALM      29.99R
ANDOVER          N/A     64  62  93 CALM      29.98S
TRENTON        CLOUDY    68  63  84 SE5       29.96S
MILLVILLE      PTSUNNY   71  67  87 CALM      29.96F
ATLANTIC CITY  MOSUNNY   74  64  71 S7        29.97F
WRIGHTSTOWN    MOSUNNY   69  66  88 S6        29.95S
TOMS RIVER     PTSUNNY   72  66  83 S7        29.99R
BELMAR         MOSUNNY   70  63  78 S6        29.98S
$$

PAZ047>061-062-071-301300-
EASTERN PENNSYLVANIA

CITY           SKY/WX    TMP DP  RH WIND       PRES   REMARKS
PHILADELPHIA   PTSUNNY   73  64  73 S8        29.96S
ALLENTOWN      CLOUDY    66  60  81 NE3       29.96S
SCRANTON       CLOUDY    67  60  78 NE6       29.93F
$$

CTZ002-004>006-009-010-012-RIZ004-006-007-MAZ004-011-015-301300-
SOUTHERN NEW ENGLAND
 IN CT

CITY           SKY/WX    TMP DP  RH WIND       PRES   REMARKS
BRADLEY INTL   PTSUNNY   64  58  80 CALM      30.00R
HARTFORD       SUNNY     67  60  78 VRB6      30.00R
DANBURY        PTSUNNY   67  59  75 CALM      30.01R
WTRBRY/OXFORD  PTSUNNY   64  57  77 E5        30.02R
BRIDGEPORT     MOSUNNY   69  64  84 SW5       29.99R
MERIDEN        SUNNY     67  61  81 CALM      30.00R
NEW HAVEN      MOSUNNY   69  64  84 CALM      30.00R
CHESTER        FAIR      68  63  83 S5        30.02R
GROTON         SUNNY     68  63  84 CALM      30.00R
WILLIMANTIC    SUNNY     63  58  83 NE3       30.02R

 IN RI

CITY           SKY/WX    TMP DP  RH WIND       PRES   REMARKS
PROVIDENCE     MOSUNNY   68  61  78 CALM      30.02R
BLOCK ISLAND   MOSUNNY   70  63  78 SW12      30.01S
WESTERLY       SUNNY     69  64  84 SW5       30.01R

 IN MA

CITY           SKY/WX    TMP DP  RH WIND       PRES   REMARKS
BOSTON         MOSUNNY   70  60  70 CALM      30.00R
WORCESTER      SUNNY     66  55  67 CALM      30.03R
WESTFIELD      CLOUDY    62  59  90 CALM      30.01R
PROVINCETOWN   SUNNY     66   9  10 SW8       30.01R
NANTUCKET      MOSUNNY   65  63  93 SW8       30.03R
$$

ANZ330-335-338-340-345-350-353-355-301300-
COASTAL MARINE OBSERVATIONS


STATION/POSITION TIME  SKY/WX   TEMP    WIND        PRES    VSBY  WAVE
                                AIR SEA DIR/SP/G                  HT/PER
                 (UTC)          (F)     (DEG/KT/KT) (MB)    (MI)  (FT/S)
NY HARB ENTRANCE 1150            69 68  200/  6/  6 1015.0          2/ 8
4S FIRE IS       1103               66                N/A           3/ 8
20S FIRE ISLAND  1150            67 66  170/  8/ 10 1015.4          3/ 8
GREAT SOUTH BAY  1100            69 72  230/ 10/ 10   N/A
23SW MTP         1150            67 65  200/  8/  8 1015.8          4/ 8
HUDSON CANYON    NOT AVBL
KINGS POINT      1100            68 66  180/  5/  6 1014.4
CENTRAL LI SOUND NOT AVBL
EASTERN LI SOUND 1100            65     180/  6/  6   N/A
ROBBINS REEF     1100            68     190/  4/  4 1013.9
$$


>>>>>>>>>>>>>>>>>>>>>>>>>>>> KEY <<<<<<<<<<<<<<<<<<<<<<<<<<<
>                                                          <
>     SKY/WX - SKY CONDITION/PRESENT WEATHER               <
>     TMP    - TEMPERATURE IN FAHRENHEIT                   <
>     DP     - DEWPOINT IN FAHRENHEIT                      <
>     RH     - RELATIVE HUMIDITY IN PERCENT                <
>     WIND   - DIRECTION AND SPEED IN MPH                  <
>     PRES   - MEAN SEA LEVEL PRESSURE IN INCHES OF HG     <
>     WCI    - WIND CHILL INDEX                            <
>     VSB    - VISIBILITY IN MILES                         <
>     HX     - HEAT INDEX                                  <
>     TC     - TEMPERATURE IN CELSIUS                      <
>     VRB    - VARIABLE WIND DIRECTION                     <
>                                                          <
>>>>>>>>>>>>>>>>>>>>>>>>>>>> KEY <<<<<<<<<<<<<<<<<<<<<<<<<<<




USA.gov is the U.S. government's official web portal to all federal, state and local government web resources and services.